Hourly Data Report for January 30, 2021

BANCROFT AUTO
ONTARIO
Current Station Operator: ECCC - MSC

45°04'17.000" N
77°52'44.000" W
330.70 m
616I001
71294
WRK

Download Data

Hourly Data (January 2021)
Hourly Data Report for January 30, 2021
TIME
LST
Temp Definition
°C
Dew Point Definition
°C
Rel Hum Definition
%
Precip. Amount Definition
mm

Wind Dir Definition
10's deg

Wind Spd Definition
km/h
Visibility Definition
km
Stn Press Definition
kPa
Hmdx Definition


Wind Chill Definition


Weather Definition


00:00 -14.3 -18.1 73 0.0 31 7   98.45   -19 LegendNANA
01:00 -15.0 -18.2 76 0.0 29 5   98.46   -19 LegendNANA
02:00 -16.0 -18.8 79 0.0   0   98.44     LegendNANA
03:00 -16.8 -19.6 79 0.0 34 2   98.44   -18 LegendNANA
04:00 -19.7 -21.7 84 0.0 0 1   98.45   -21 LegendNANA
05:00 -21.6 -23.8 82 0.0 0 1   98.48   -22 LegendNANA
06:00 -23.5 -25.8 81 0.0   0   98.51     LegendNANA
07:00 -24.3 -26.6 81 0.0   0   98.51     LegendNANA
08:00 -24.9 -27.5 79 0.0 0 1   98.52   -26 LegendNANA
09:00 -21.7 -24.7 77 0.0   0   98.61     LegendNANA
10:00 -16.6 -20.0 75 0.0 30 10   98.61   -23 LegendNANA
11:00 -12.9 -19.2 59 0.0 14 1   98.62   -14 LegendNANA
12:00 -12.2 -19.1 56 0.0 29 4   98.59   -15 LegendNANA
13:00 -10.9 -18.0 56 0.0 30 7   98.53   -15 LegendNANA
14:00 -9.1 -17.3 52 0.0 34 4   98.48   -11 LegendNANA
15:00 -7.8 -16.8 48 0.0 32 6   98.47   -11 LegendNANA
16:00 -7.2 -15.9 50 0.0 29 7   98.48   -11 LegendNANA
17:00 -11.4 -15.8 70 0.0 0 1   98.49   -12 LegendNANA
18:00 -14.7 -16.7 85 0.0   0   98.55     LegendNANA
19:00 -17.5 -19.7 83 0.0 1 2   98.53   -19 LegendNANA
20:00 -18.6 -20.4 86 0.0   0   98.56     LegendNANA
21:00 -20.6 -22.8 82 0.0   0   98.56     LegendNANA
22:00 -21.1 -23.3 83 0.0   0   98.56     LegendNANA
23:00 -22.3 -24.6 82 0.0   0   98.54     LegendNANA

Notes on Data Quality.

Legend

  • E = Estimated
  • M = Missing
  • NA = Not Available*
  • [empty] = Indicates an unobserved value
Date modified: